Location: Kęty
(49.8820°N, 19.2300°E)
Time: 05:25:17
(UTC+02:00)

ISS - Visible Passes

Search period start: 28 May 2018 00:00
Search period end: 07 June 2018 00:00
Orbit: 402 x 407 km, 51.6° (Epoch: 28 May)

Date Brightness Start Highest point End Pass type
(mag) Time Alt. Az. Time Alt. Az. Time Alt. Az.
28 May -1.4 01:07:44 10° W 01:08:21 14° W 01:08:21 14° W visible
28 May -3.5 22:38:50 10° WNW 22:42:06 68° N 22:45:05 12° E visible
29 May -2.9 00:15:23 10° WNW 00:17:42 35° WSW 00:17:42 35° WSW visible
29 May -3.3 21:46:33 10° W 21:49:49 62° N 21:53:04 10° E visible
29 May -3.9 23:23:06 10° WNW 23:26:22 66° SSW 23:27:06 47° SE visible
30 May -3.9 22:30:51 10° WNW 22:34:08 89° W 22:36:31 17° ESE visible
31 May -1.9 00:07:37 10° W 00:09:08 19° WSW 00:09:08 19° WSW visible
31 May -3.6 21:38:35 10° WNW 21:41:52 72° N 21:45:08 10° E visible
31 May -3.2 23:15:10 10° W 23:18:15 37° SSW 23:18:34 36° SSW visible
01 Jun -3.7 22:22:50 10° WNW 22:26:04 57° SSW 22:28:02 21° SE visible
02 Jun -1.2 00:00:24 10° WSW 00:00:40 11° WSW 00:00:40 11° WSW visible
02 Jun -3.8 21:30:32 10° WNW 21:33:49 82° SSW 21:37:05 10° ESE visible
02 Jun -2.2 23:07:25 10° W 23:09:57 21° SW 23:10:09 21° SSW visible
03 Jun -2.8 22:14:51 10° W 22:17:50 32° SSW 22:19:40 18° SSE visible
04 Jun -3.4 21:22:27 10° WNW 21:25:38 49° SSW 21:28:49 10° SE visible
04 Jun -1.4 23:00:35 10° WSW 23:01:30 11° SW 23:01:50 11° SW visible
05 Jun -1.8 22:07:09 10° W 22:09:26 18° SW 22:11:24 12° S visible
